Regional Weather Roundup
Issued by NWS

Home | Current Version | Previous Version | Graphics & Text | Print | Product List | Glossary Off
Versions: 1 2 3 4 5 6 7 8 9 10 11 12 13 14 15 16 17 18 19 20 21 22 23 24 25 26 27 28 29 30 31 32 33 34 35 36 37 38 39 40 41 42 43 44 45 46 47 48 49 50

000
ASUS43 KMPX 211610
RWRMN
WEATHER ROUNDUP FOR MINNESOTA
NATIONAL WEATHER SERVICE TWIN CITIES/CHANHASSEN MN
1000 AM CST SAT JAN 21 2017


NOTE: "FAIR" INDICATES FEW OR NO CLOUDS BELOW 12,000 FEET WITH NO
SIGNIFICANT WEATHER AND/OR OBSTRUCTIONS TO VISIBILITY. N/A MEANS
CURRENT SKY AND/OR WEATHER CONDITIONS ARE NOT AVAILABLE.

MNZ060>063-068>070-211700-
   Twin Cities Metro

CITY           SKY/WX    TMP DP  RH WIND       PRES   REMARKS
TWIN CITIES    DRIZZLE   36  34  92 E6        29.43R FOG
ST PAUL        LGT RAIN  36  35  96 E6        29.44S
CRYSTAL        LGT RAIN  35  33  92 E3        29.42R FOG
BLAINE         DRIZZLE   37  37 100 E6        29.43R
LAKEVILLE      LGT RAIN  34  34 100 NE3       29.42R
EDEN PRAIRIE   CLOUDY    36  34  92 E7        29.41S FOG
SOUTH ST PAUL  CLOUDY    36  36 100 NE5       29.43R FOG
LAKE ELMO      CLOUDY    36  36 100 E5        29.44R FOG
$$
MNZ001>005-007-008-013>017-022>024-027-028-211700-
   Northwest Minnesota

CITY           SKY/WX    TMP DP  RH WIND       PRES   REMARKS
BEMIDJI        FOG       33  33 100 SE5       29.44S VSB 1/4 WCI  28
HALLOCK        CLOUDY    36  34  93 SE8       29.43S
ROSEAU         CLOUDY    36  30  80 CALM      29.47R
WARROAD        CLOUDY    34  30  86 NE5       29.47S WCI  30
THIEF RVR FALL CLOUDY    35  33  92 E9        29.44S WCI  28
CROOKSTON      CLOUDY    36  34  93 SE9       29.43F
FOSSTON        CLOUDY    34  34 100 E6        29.44R WCI  29
DETROIT LAKES  DRIZZLE   34  34 100 SE8       29.43S WCI  27
MOORHEAD       CLOUDY    36  34  93 SE6       29.41F
PARK RAPIDS    LGT RAIN  34  32  92 SE5       29.43S VSB 1/2 WCI  30
MAHNOMEN       DRIZZLE   34  33  94 SE5       29.42R WCI  30
$$
MNZ006-009>011-018-025>026-211700-
   North Central Minnesota

CITY           SKY/WX    TMP DP  RH WIND       PRES   REMARKS
BAUDETTE       CLOUDY    34  33  96 E9        29.48R WCI  27
FLAG ISLAND    CLOUDY    34  34 100 SE5       29.48S FOG     WCI  30
INTL FALLS     CLOUDY    34  33  96 E7        29.50S FOG     WCI  28
WASKISH        CLOUDY    36  34  93 E6        29.47S
BIG FORK       FOG       36  34  93 CALM      29.47F VSB 1
LONGVILLE      CLOUDY    34  34 100 CALM      29.46R FOG
GRAND RAPIDS   FOG       34  33  96 E6        29.49R VSB 1   WCI  29
CRANE LAKE     CLOUDY    34  34 100 CALM      29.53S
ORR            CLOUDY    34  32  93 CALM      29.47S
COOK           CLOUDY    34  34 100 CALM      29.49S
WALKER         FOG       32  32  99 E5        29.45R VSB 1/4 WCI  28
$$
MNZ012-019>021-037-211700-
   Northeast Minnesota

CITY           SKY/WX    TMP DP  RH WIND       PRES   REMARKS
DULUTH         FOG       34  34 100 E10       29.48R VSB 1/8 WCI  26
ELY            CLOUDY    34  34 100 CALM      29.50S FOG
HIBBING        FOG       32  32 100 E8        29.48R VSB 1   WCI  25
EVELETH        FOG       35  35  99 E5        29.49S VSB 1/2 WCI  31
DULUTH HARBOR  MIX PCPN  34  34 100 NE9       29.52R WCI  26
TWO HARBORS    CLOUDY    37  34  87 E8        29.49S FOG
SILVER BAY     CLOUDY    36  36 100 E6        29.50S
GRAND MARAIS     N/A     37  36  96 NE8       29.56S
G MARAIS ARPRT FOG       30  28  93 E6        29.52S VSB<1/4 WCI  24
$$
MNZ029>031-032-039>041-046>048-054>057-064-211700-
   West Central Minnesota

CITY           SKY/WX    TMP DP  RH WIND       PRES   REMARKS
FERGUS FALLS   CLOUDY    36  36 100 SE8       29.44F
WHEATON        FOG       41  41 100 SE7       29.42R VSB 1/2
MORRIS         CLOUDY    34  34 100 E10       29.39S FOG     WCI  26
ALEXANDRIA     FOG       33  33 100 E9        29.42R VSB 1/2 WCI  25
ELBOW LAKE     CLOUDY    33  33 100 SE10      29.41R FOG     WCI  25
WADENA         CLOUDY    32  32 100 CALM      29.42S
GLENWOOD       FOG       34  34 100 E7        29.42R VSB 1/4 WCI  28
APPLETON       DRZL/FOG  36  34  93 E5        29.40S VSB 1/4
BENSON         CLOUDY    37  34  87 SE7       29.41S
ORTONVILLE     FOG       34  32  93 CALM      29.39S VSB 1/2
MADISON        LGT SNOW  36  36 100 E6        29.38F VSB 3/4
WILLMAR        FOG       36  36 100 E12       29.41S VSB 3/4
$$
MNZ033>034-036-042>043-049>051-058-059-211700-
   Central Minnesota

CITY           SKY/WX    TMP DP  RH WIND       PRES   REMARKS
ST CLOUD       FOG       34  34 100 E6        29.43R VSB 1/4 WCI  29
SAUK CENTRE    MIX PCPN  33  33 100 E7        29.42S VSB 3/4 WCI  26
PAYNESVILLE    DRZL/FOG  34  34 100 E5        29.42S VSB 3/4 WCI  29
AITKIN         FOG       36  34  93 NE5       29.44F VSB 1/4
PINE RIVER     FOG       34  34 100 E7        29.49S VSB 1   WCI  28
BRAINERD       FOG       33  33 100 E3        29.45S VSB 1/2
STAPLES        CLOUDY    34  34 100 CALM      29.43S FOG
LONG PRAIRIE   SNOW      32  32 100 NE6       29.42F VSB 1/4 WCI  26
LITTLE FALLS   MIX PCPN  34  32  93 CALM      29.44S
LITCHFIELD     DRIZZLE   36  36 100 E5        29.42R
BUFFALO        CLOUDY    34  33  96 NE8       29.43R FOG     WCI  27
MAPLE LAKE     FOG       35  35 100 E7        29.43R VSB 3/4 WCI  29
HUTCHINSON     RAIN      35  35 100 NE7       29.42R VSB 1   WCI  29
$$
MNZ037-044-045-052-053-211700-
   East Central Minnesota

CITY           SKY/WX    TMP DP  RH WIND       PRES   REMARKS
PRINCETON      CLOUDY    36  36 100 E6        29.44R FOG
MORA           CLOUDY    34  32  93 CALM      29.47R FOG
CAMBRIDGE      DRIZZLE   37  36  93 NE3       29.42S
RUSH CITY      DRIZZLE   34  34 100 NE5       29.45S WCI  30
MOOSE LAKE     CLOUDY    34  34 100 NE3       29.45S FOG
HINCKLEY       CLOUDY    34  34 100 E6        29.46S FOG     WCI  29
CLOQUET        FOG       34  34 100 E7        29.47S VSB 1/4 WCI  28
MCGREGOR       CLOUDY    34  34 100 NE5       29.47S VSB 1/2 WCI  30
$$
MNZ071>073-080-081-089-090-097-098-211700-
   Southwest Minnesota

CITY           SKY/WX    TMP DP  RH WIND       PRES   REMARKS
MONTEVIDEO     FOG       34  34 100 SE8       29.41S VSB<1/4 WCI  27
GRANITE FALLS  CLOUDY    35  35  99 E5        29.41R FOG     WCI  31
CANBY          FOG       34  34 100 CALM      29.39S VSB 1/4
MARSHALL       FOG       34  34 100 SE7       29.38S VSB 1   WCI  28
REDWOOD FALLS  CLOUDY    35  33  92 E7        29.39S FOG     WCI  29
OLIVIA         CLOUDY    34  34 100 E7        29.39S FOG     WCI  28
PIPESTONE      FOG       36  36 100 SE6       29.35R VSB 1/4
WINDOM         FOG       36  36 100 CALM      29.38R VSB 1/4
WORTHINGTON    FOG       36  36 100 CALM        N/A  VSB 1/4
JACKSON        FOG       32  32 100 CALM      29.38R VSB 1/4
TRACY          FOG       35  35 100 SE3       29.37S VSB 1/2
SLAYTON        FOG       33  33 100 SE6       29.37R VSB 1/2 WCI  27
$$
MNZ065>067-074>077-082>085-091>093-211700-
   South Central Minnesota

CITY           SKY/WX    TMP DP  RH WIND       PRES   REMARKS
MANKATO        CLOUDY    35  35 100 E7        29.40S FOG     WCI  29
NEW ULM        DRZL/FOG  34  34 100 E5        29.39S VSB 3/4 WCI  30
ST JAMES       FOG       36  36 100 E6        29.40R VSB 1/2
FAIRMONT       FOG       35  34  96 CALM      29.39R VSB 1/4
GLENCOE        FOG       35  36 100 E6        29.41R VSB 1/4 WCI  30
OWATONNA       CLOUDY    36  36 100 E5        29.39S FOG
WASECA         CLOUDY    36  36 100 E5        29.40R FOG
ALBERT LEA     FOG       36  36 100 S3        29.38R VSB<1/4
$$
MNZ078>079-086>088-094>096-211700-
   Southeast Minnesota

CITY           SKY/WX    TMP DP  RH WIND       PRES   REMARKS
ROCHESTER      MIX PCPN  34  34 100 SE7       29.40R VSB 1/4 WCI  28
RED WING       RAIN      36  34  93 E5        29.42S
STANTON        CLOUDY    36  35  94 CALM      29.40S
DODGE CENTER   FOG       34  34 100 CALM      29.39S VSB 1/2
WINONA         FOG       36  36 100 SE6       29.44R VSB 1
AUSTIN         FOG       36  34  93 CALM      29.39R VSB 1/4
PRESTON        FOG       34  33  97 CALM      29.40S VSB<1/4
$$
ABBREVIATIONS USED IN REMARKS
   TC - TEMPERATURES IN CELSIUS
  WCI - WIND CHILL INDEX
   HX - HEAT INDEX
  VSB - VISIBILITY
$$



USA.gov is the U.S. government's official web portal to all federal, state and local government web resources and services.